EICKGCTS

Guest
Details From EICK - Cork
To GCTS - Tenerife Sur
Flight Number -
Tags Decoded
Created
Modified
Stats Distance 1,475 nm / 2,732 km
Max Altitude 0 ft / 0 m
Waypoints 2
Social Downloads 0
Likes 0
Share VATSIM

Download

Looking for another format? Having issues loading an existing format? Contact us
Advertisement - Login to hide

Notes

Decoded

Route

EICK GCTS

ID Type Via Altitude Latitude Longitude Leg Dist Tot Dist Heading (true) Name
O EICK APT - 0 ft / 0 m 51.84143˚ -8.49570˚ - 0 nm - -
O GCTS APT - 0 ft / 0 m 28.03920˚ -16.58764˚ 1475 nm 1475 nm 197° / 192° -

Altitude Profile

Advertisement - Login to hide

Weather


0- 5 10 15 20 25 30 35+ Temperature / ° C

Clouds and Precipitation
Forecast for 2017-12-16 06:00 UTC. Updated 32 minutes ago

Ground ~20,000 ft ~40,000 ft Winds

EICK

Details ICAO EICK (ORK)
Name Cork
Region Ireland
Timezone Europe/Dublin (UTC+0.0)
Stats Elevation 502 ft / 153 m (AMSL)
Location 51.842605° -8.489056°
Runways 2
Magnetic Variation 3.611° W

METAR

EICK 160130Z 33012KT 9999 FEW200 02/01 Q1020 NOSIG

Decode

TAF

TAF EICK 152300Z 1600/1624 30012KT 9999 FEW015 BECMG 1603/1606 27008KT BECMG 1622/1624 22010KT

Decode

Departure Runways

ID Width Length Bearing (true) Bearing (mag) Surface Threshold Offset Overrun Length
07 148 ft / 45 m 4,281 ft / 1,305 m 62.55° 66.16° Concrete 0 ft / 0 m 0 ft / 0 m
17 148 ft / 45 m 6,992 ft / 2,131 m 159.93° 163.54° Asphalt 0 ft / 0 m 115 ft / 35 m
25 148 ft / 45 m 4,281 ft / 1,305 m 242.57° 246.18° Concrete 0 ft / 0 m 39 ft / 12 m
35 148 ft / 45 m 6,992 ft / 2,131 m 339.94° 343.55° Asphalt 0 ft / 0 m 0 ft / 0 m

GCTS

Details ICAO GCTS (TFS)
Name Tenerife Sur
Region Canary Islands
Timezone Atlantic/Canary (UTC+0.0)
Stats Elevation 209 ft / 64 m (AMSL)
Location 28.044475° -16.572488°
Runways 1
Magnetic Variation 5.117° W

METAR

GCTS 160130Z 32005KT CAVOK 17/14 Q1023 NOSIG

Decode

TAF

TAF GCTS 152000Z 1521/1621 VRB05KT 9999 BKN030 TX24/1614Z TN16/1606Z BECMG 1610/1612 10018KT BECMG 1619/1620 06005KT

Decode

Destination Runways

ID Width Length Bearing (true) Bearing (mag) Surface Threshold Offset Overrun Length
08 148 ft / 45 m 10,489 ft / 3,197 m 68.47° 73.59° Asphalt 0 ft / 0 m 0 ft / 0 m
26 148 ft / 45 m 10,489 ft / 3,197 m 248.49° 253.61° Asphalt 0 ft / 0 m 0 ft / 0 m

Approach Navaids

Runway Type Ident Frequency Range Bearing (true) Bearing (mag) Slope Elevation
08 Localiser TRS 109.70 MHz 18 nm / 33 km 68.49° 73.61° - 187 ft / 57 m (AMSL)
08 Glidescope TRS 109.70 MHz 10 nm / 19 km 68.48° 73.60° 3.00° 209 ft / 64 m (AMSL)
26 Localiser ISUR 110.90 MHz 18 nm / 33 km 248.52° 253.63° - 209 ft / 64 m (AMSL)
26 Glidescope ISUR 110.90 MHz 10 nm / 19 km 248.48° 253.60° 3.00° 236 ft / 72 m (AMSL)
26 DME ISUR 110.90 MHz 18 nm / 33 km - - - 236 ft / 72 m (AMSL)

Popular Alternatives